| time (UTC) | temp F | wind direction | speed MPH | gust MPH | rain 1hr in | rain 24hr in | rain mn in | humidity % | barometer mb |
| 20260903230017 | 89 | 88 | 12.0 | 18.0 | 0.00 | 0.00 | 0.00 | 77 | 1011.1 |
| 20260903224525 | 88 | 93 | 8.0 | 18.0 | 0.00 | 0.00 | 0.00 | 78 | 1011.1 |
| 20260903223014 | 89 | 92 | 12.0 | 25.0 | 0.00 | 0.00 | 0.00 | 78 | 1011.0 |
| 20260903221515 | 96 | 109 | 7.0 | 11.0 | 0.00 | 0.00 | 0.00 | 64 | 1010.5 |
| 20260903220028 | 97 | 112 | 2.0 | 7.0 | 0.00 | 0.00 | 0.00 | 67 | 1010.4 |
| 20260903214512 | 99 | 113 | 7.0 | 11.0 | 0.00 | 0.00 | 0.00 | 61 | 1010.2 |
| 20260903213020 | 99 | 169 | 1.0 | 10.0 | 0.00 | 0.00 | 0.00 | 61 | 1010.3 |
| 20260903211510 | 99 | 108 | 0.0 | 10.0 | 0.00 | 0.00 | 0.00 | 61 | 1010.5 |
| 20260903210009 | 101 | 111 | 0.0 | 5.0 | 0.00 | 0.00 | 0.00 | 60 | 1010.5 |
| 20260903204513 | 101 | 77 | 6.0 | 9.0 | 0.00 | 0.00 | 0.00 | 60 | 1010.6 |
| 20260903203004 | 99 | 113 | 1.0 | 6.0 | 0.00 | 0.00 | 0.00 | 60 | 1011.0 |
| 20260903201504 | 99 | 178 | 4.0 | 10.0 | 0.00 | 0.00 | 0.00 | 62 | 1011.3 |
| 20260903200002 | 100 | 86 | 4.0 | 9.0 | 0.00 | 0.00 | 0.00 | 61 | 1011.3 |
| 20260903194558 | 99 | 92 | 3.0 | 7.0 | 0.00 | 0.00 | 0.00 | 63 | 1011.5 |
| 20260903193104 | 99 | 143 | 2.0 | 10.0 | 0.00 | 0.00 | 0.00 | 63 | 1011.7 |
| 20260903191552 | 98 | 208 | 2.0 | 9.0 | 0.00 | 0.00 | 0.00 | 65 | 1011.8 |
| 20260903190052 | 98 | 161 | 1.0 | 7.0 | 0.00 | 0.00 | 0.00 | 65 | 1012.1 |
| 20260903184543 | 96 | 215 | 2.0 | 15.0 | 0.00 | 0.00 | 0.00 | 66 | 1012.4 |
| 20260903183039 | 97 | 153 | 4.0 | 9.0 | 0.00 | 0.00 | 0.00 | 67 | 1012.7 |
| 20260903181535 | 96 | 107 | 2.0 | 9.0 | 0.00 | 0.00 | 0.00 | 68 | 1012.9 |
| 20260903180031 | 95 | 194 | 4.0 | 9.0 | 0.00 | 0.00 | 0.00 | 69 | 1013.2 |
| 20260903174526 | 95 | 117 | 4.0 | 10.0 | 0.00 | 0.00 | 0.00 | 70 | 1013.3 |
| 20260903171521 | 93 | 194 | 7.0 | 13.0 | 0.00 | 0.00 | 0.00 | 73 | 1013.8 |
| 20260903170019 | 93 | 169 | 6.0 | 10.0 | 0.00 | 0.00 | 0.00 | 75 | 1013.9 |
| 20260903164516 | 92 | 193 | 7.0 | 16.0 | 0.00 | 0.00 | 0.00 | 76 | 1014.0 |
| 20260903163018 | 90 | 180 | 4.0 | 13.0 | 0.00 | 0.00 | 0.00 | 78 | 1014.3 |
| 20260903161512 | 88 | 193 | 3.0 | 13.0 | 0.00 | 0.00 | 0.00 | 81 | 1014.6 |
| 20260903160014 | 89 | 168 | 6.0 | 10.0 | 0.00 | 0.00 | 0.00 | 82 | 1014.6 |
| 20260903154505 | 87 | 194 | 5.0 | 8.0 | 0.00 | 0.00 | 0.00 | 84 | 1014.7 |
| 20260903153002 | 87 | 154 | 3.0 | 9.0 | 0.00 | 0.00 | 0.00 | 85 | 1014.6 |
| 20260903151608 | 86 | 200 | 6.0 | 12.0 | 0.00 | 0.00 | 0.00 | 87 | 1014.7 |
| 20260903144553 | 84 | 178 | 4.0 | 12.0 | 0.00 | 0.00 | 0.00 | 91 | 1014.6 |
| 20260903143056 | 84 | 198 | 4.0 | 11.0 | 0.00 | 0.00 | 0.00 | 93 | 1014.7 |
| 20260903141550 | 83 | 183 | 1.0 | 8.0 | 0.00 | 0.00 | 0.00 | 95 | 1014.7 |
| 20260903140049 | 82 | 160 | 7.0 | 12.0 | 0.00 | 0.00 | 0.00 | 95 | 1014.8 |
| 20260903134648 | 82 | 212 | 3.0 | 8.0 | 0.00 | 0.00 | 0.00 | 96 | 1014.8 |
| 20260903133048 | 82 | 186 | 3.0 | 9.0 | 0.00 | 0.00 | 0.00 | 96 | 1014.9 |
| 20260903131551 | 82 | 186 | 2.0 | 7.0 | 0.00 | 0.00 | 0.00 | 96 | 1014.7 |
| 20260903130050 | 81 | 202 | 3.0 | 8.0 | 0.00 | 0.00 | 0.00 | 97 | 1014.7 |
| 20260903124545 | 81 | 190 | 2.0 | 5.0 | 0.00 | 0.00 | 0.00 | 97 | 1014.6 |
| 20260903123043 | 81 | 164 | 1.0 | 5.0 | 0.00 | 0.00 | 0.00 | 97 | 1014.4 |
| 20260903121542 | 81 | 173 | 2.0 | 6.0 | 0.00 | 0.00 | 0.00 | 96 | 1014.3 |
| 20260903120044 | 81 | 153 | 2.0 | 7.0 | 0.00 | 0.00 | 0.00 | 96 | 1014.1 |
| 20260903114541 | 81 | 167 | 2.0 | 7.0 | 0.00 | 0.00 | 0.00 | 96 | 1014.1 |
| 20260903113040 | 81 | 173 | 2.0 | 7.0 | 0.00 | 0.00 | 0.00 | 96 | 1013.9 |
| 20260903111538 | 82 | 180 | 4.0 | 9.0 | 0.00 | 0.00 | 0.00 | 95 | 1013.9 |
| 20260903110038 | 82 | 186 | 4.0 | 10.0 | 0.00 | 0.00 | 0.00 | 95 | 1013.8 |
| 20260903104537 | 82 | 170 | 2.0 | 7.0 | 0.00 | 0.00 | 0.00 | 94 | 1013.7 |
| 20260903103035 | 82 | 195 | 3.0 | 8.0 | 0.00 | 0.00 | 0.00 | 94 | 1013.9 |
| 20260903101635 | 82 | 192 | 2.0 | 9.0 | 0.00 | 0.00 | 0.00 | 93 | 1013.9 |
| 20260903100033 | 82 | 198 | 3.0 | 9.0 | 0.00 | 0.00 | 0.00 | 93 | 1013.7 |
| 20260903094539 | 82 | 195 | 4.0 | 11.0 | 0.00 | 0.00 | 0.00 | 93 | 1013.8 |
| 20260903093048 | 83 | 164 | 8.0 | 15.0 | 0.00 | 0.00 | 0.00 | 93 | 1014.0 |
| 20260903091530 | 82 | 175 | 3.0 | 10.0 | 0.00 | 0.00 | 0.00 | 93 | 1014.1 |
| 20260903090034 | 82 | 168 | 6.0 | 10.0 | 0.00 | 0.00 | 0.00 | 94 | 1013.9 |
| 20260903084528 | 82 | 181 | 3.0 | 9.0 | 0.00 | 0.00 | 0.00 | 94 | 1014.0 |
| 20260903083028 | 82 | 150 | 3.0 | 8.0 | 0.00 | 0.00 | 0.00 | 94 | 1014.1 |
| 20260903081539 | 82 | 186 | 2.0 | 6.0 | 0.00 | 0.00 | 0.00 | 94 | 1014.0 |
| 20260903080026 | 82 | 196 | 3.0 | 8.0 | 0.00 | 0.00 | 0.00 | 95 | 1014.0 |
| 20260903074527 | 82 | 174 | 4.0 | 11.0 | 0.00 | 0.00 | 0.00 | 94 | 1014.0 |
| 20260903073030 | 82 | 159 | 2.0 | 7.0 | 0.00 | 0.00 | 0.00 | 94 | 1014.1 |
| 20260903071524 | 82 | 167 | 3.0 | 9.0 | 0.00 | 0.00 | 0.00 | 94 | 1014.1 |
| 20260903070023 | 82 | 175 | 1.0 | 8.0 | 0.00 | 0.00 | 0.00 | 94 | 1014.3 |
| 20260903064522 | 82 | 188 | 4.0 | 9.0 | 0.00 | 0.00 | 0.00 | 94 | 1014.1 |
| 20260903063021 | 82 | 165 | 2.0 | 8.0 | 0.00 | 0.00 | 0.00 | 94 | 1014.2 |
| 20260903061520 | 83 | 111 | 2.0 | 7.0 | 0.00 | 0.00 | 0.00 | 93 | 1014.2 |
| 20260903060019 | 83 | 177 | 4.0 | 7.0 | 0.00 | 0.00 | 0.00 | 92 | 1014.1 |
| 20260903054517 | 83 | 168 | 2.0 | 9.0 | 0.00 | 0.00 | 0.00 | 92 | 1014.3 |
| 20260903053015 | 83 | 138 | 4.0 | 7.0 | 0.00 | 0.00 | 0.00 | 90 | 1014.4 |
| 20260903051513 | 84 | 136 | 1.0 | 8.0 | 0.00 | 0.00 | 0.00 | 89 | 1014.4 |
| 20260903050012 | 84 | 165 | 3.0 | 6.0 | 0.00 | 0.00 | 0.00 | 88 | 1014.2 |
| 20260903044509 | 84 | 169 | 2.0 | 8.0 | 0.00 | 0.00 | 0.00 | 86 | 1014.3 |
| 20260903043011 | 85 | 111 | 4.0 | 8.0 | 0.00 | 0.00 | 0.00 | 84 | 1014.3 |
| 20260903041510 | 86 | 139 | 1.0 | 7.0 | 0.00 | 0.00 | 0.00 | 82 | 1014.2 |
| 20260903034509 | 88 | 113 | 1.0 | 8.0 | 0.00 | 0.00 | 0.00 | 77 | 1013.7 |
| 20260903033007 | 88 | 113 | 3.0 | 6.0 | 0.00 | 0.00 | 0.00 | 76 | 1013.7 |
| 20260903031521 | 89 | 108 | 3.0 | 7.0 | 0.00 | 0.00 | 0.00 | 74 | 1013.3 |
| 20260903030005 | 90 | 132 | 5.0 | 14.0 | 0.00 | 0.00 | 0.00 | 72 | 1012.9 |
| 20260903024506 | 91 | 147 | 5.0 | 10.0 | 0.00 | 0.00 | 0.00 | 70 | 1012.5 |
| 20260903023005 | 92 | 101 | 4.0 | 12.0 | 0.00 | 0.00 | 0.00 | 69 | 1012.1 |
| 20260903021517 | 93 | 167 | 3.0 | 11.0 | 0.00 | 0.00 | 0.00 | 69 | 1011.9 |
| 20260903020004 | 94 | 115 | 3.0 | 7.0 | 0.00 | 0.00 | 0.00 | 67 | 1011.4 |
| 20260903014503 | 95 | 89 | 0.0 | 2.0 | 0.00 | 0.00 | 0.00 | 62 | 1011.1 |
| 20260903013006 | 95 | 88 | 1.0 | 3.0 | 0.00 | 0.00 | 0.00 | 61 | 1010.9 |
| 20260903011502 | 96 | 76 | 0.0 | 4.0 | 0.00 | 0.00 | 0.00 | 61 | 1010.8 |
| 20260903010059 | 96 | 67 | 2.0 | 5.0 | 0.00 | 0.00 | 0.00 | 60 | 1010.6 |
| 20260903004558 | 99 | 166 | 1.0 | 4.0 | 0.00 | 0.00 | 0.00 | 57 | 1010.7 |
| 20260903003059 | 99 | 169 | 0.0 | 3.0 | 0.00 | 0.00 | 0.00 | 57 | 1010.7 |
| 20260903001558 | 99 | 168 | 1.0 | 5.0 | 0.00 | 0.00 | 0.00 | 57 | 1010.6 |
| 20260903000057 | 100 | 185 | 1.0 | 6.0 | 0.00 | 0.00 | 0.00 | 57 | 1010.7 |
| 20260902234603 | 101 | 153 | 1.0 | 4.0 | 0.00 | 0.00 | 0.00 | 56 | 1010.7 |
| 20260902233056 | 101 | 188 | 1.0 | 6.0 | 0.00 | 0.00 | 0.00 | 56 | 1010.7 |
| 20260902231601 | 101 | 153 | 3.0 | 7.0 | 0.00 | 0.00 | 0.00 | 57 | 1010.7 |